Regional Weather Roundup
Issued by NWS Newport/Morehead, NC

Current Version | Previous Version | Graphics & Text | Print | Product List | Glossary On
Versions: 1 2 3 4 5 6 7 8 9 10 11 12 13 14 15 16 17 18 19 20 21 22 23 24 25 26 27 28 29 30 31 32 33 34 35 36 37 38 39 40 41 42 43 44 45 46 47 48 49 50
000 ASUS42 KMHX 202013 RWRMHX WEATHER ROUNDUP FOR EASTERN NORTH CAROLINA NATIONAL WEATHER SERVICE NEWPORT/MOREHEAD CITY NC 400 PM EDT FRI APR 20 2018 NOTE: "FAIR" INDICATES FEW OR NO CLOUDS BELOW 12,000 FEET WITH NO SIGNIFICANT WEATHER AND/OR OBSTRUCTIONS TO VISIBILITY NCZ015>017-031-032-045>047-102-103-202100- NORTH COAST CITY SKY/WX TMP DP RH WIND PRES REMARKS EDENTON FAIR 63 27 26 NW10 30.28F ELIZABETH CITY FAIR 61 29 29 NW12 30.27F KITTY HAWK FAIR 50 31 48 NE6 30.29S MANTEO FAIR 51 32 47 NE10 30.30F $$ NCZ045>047-081-094-103-104-202100- CENTRAL COAST CITY SKY/WX TMP DP RH WIND PRES REMARKS FRISCO FAIR 55 36 48 NE9 30.29F $$ NCZ095-097-098-100-101-202100- SOUTHERN COAST CITY SKY/WX TMP DP RH WIND PRES REMARKS BEAUFORT FAIR 63 34 33 VRB7 30.27F CEDAR ISLAND NOT AVBL JACKSONVILLE FAIR 64 30 27 NW13 30.27F PINEY ISLAND NOT AVBL WILMINGTON FAIR 66 31 27 NE3 30.27F $$ NCZ011>013-027>030-043-044-078>080-089-090>093-098-202100- COASTAL PLAIN CITY SKY/WX TMP DP RH WIND PRES REMARKS AHOSKIE FAIR 60 25 25 N3 30.28F CLINTON FAIR 65 31 28 NW5 30.29F ELIZABETHTOWN FAIR 65 28 24 MISG 30.28F GOLDSBORO FAIR 65 24 21 NW6 30.27F GREENVILLE FAIR 63 25 23 N10G16 30.29F HAVELOCK SUNNY 65 30 27 N9G17 30.28F KENANSVILLE FAIR 64 27 24 NW9 30.29F KINSTON FAIR 63 27 25 NW8 30.29F NEW BERN FAIR 61 30 31 N7 30.28F RICHLANDS FAIR 64 30 27 N12 30.28F ROCKY MOUNT FAIR 62 25 24 W6 30.28F WASHINGTON FAIR 62 26 24 NW9 30.28F WHITEVILLE FAIR 65 28 24 N3 30.28F $$ AMZ130-135-150-152-154-156-158-170-250-252-270-ANZ085-086-088-633-658-670-202100- MARINE OBSERVATIONS STATION/POSITION TIME TEMP WIND PRES WAVE SWELL AIR SEA DIR/SP/G HT/PER HT/PER (UTC) (F) (DEG/KT/KT) (MB) (FT/S) (FT/S) CHESAPEAKE LIGHT NOT AVBL 64 E VA BEACH 1950 46 49 330/ 14/ 16 1026.1 4/ 7 2/ 7 DUCK 1942 47 52 40/ 11/ 13 1025.2 2 E DUCK 2000 51 N/A 3/ 6 2/14 OREGON INLET 1942 49 53 20/ 12/ 16 1025.7 13E OREGON INLT 1948 51 N/A 5/ 6 3/ 8 HATTERAS CG 1942 51 60 50/ 9/ 13 1025.5 DIAMOND BUOY 2000 51 70 20/ 12/ 16 1025.9 CAPE LOOKOUT 2000 70/ 11/ 12 1025.4 BEAUFORT LAB 1942 59 62 200/ 8/ 8 1025.2 30 SE NEW RVR IN 1908 55 66 80/ 6/ 8 1026.3 30 SE NEW RVR IN 2000 66 N/A 3/ 6 2/11 27 SE WRIGHTSVLE 1908 56 66 80/ 8/ 12 1026.2 5 SE WRIGHTSVLE 1908 56 61 110/ 8/ 12 1025.9 225 S CAPE HAT 2000 65 72 30/ 16/ 19 1022.5 41 SE CHARLESTON 2000 58 67 40/ 19/ 23 1025.2 $$

USA.gov is the U.S. government's official web portal to all federal, state and local government web resources and services.